Location: Cointrin
(46.2167°N, 6.1167°E)
Time: 19:12:11
(UTC+00:00)

Cosmos 2219 Rocket - Pass Details

Date: 08 February 2023
Orbit: 826 x 848 km, 71.0° (Epoch: 21 March)

Event Time Altitude Azimuth Distance (km) Brightness Sun altitude
Rises 18:24:17 0° 213° (SSW) 3,353 5.9 -16.6°
Reaches altitude 10° 18:26:43 10° 216° (SW) 2,425 5.1 -17.0°
Maximum altitude 18:32:15 67° 299° (WNW) 897 2.5 -18.0°
Drops below altitude 10° 18:37:51 10° 22° (NNE) 2,451 4.4 -19.0°
Enters shadow 18:39:01 - 24° (NNE) 2,894 4.7 -19.2°
